Regional Weather Roundup
Issued by NWS Charleston, WV

Home | Current Version | Previous Version | Graphics & Text | Print | Product List | Glossary On
Versions: 1 2 3 4 5 6 7 8 9 10 11 12 13 14 15 16 17 18 19 20 21 22 23 24 25 26 27 28 29 30 31 32 33 34 35 36 37 38 39 40 41 42 43 44 45 46 47 48 49 50
919
ASUS41 KRLX 041910
RWRRLX
West Virginia Regional Weather Roundup
National Weather Service Charleston WV
300 PM EDT WED MAY 04 2016

Note: "fair" indicates few or no clouds below 12,000 feet with no
significant weather and/or obstructions to visibility.

WVZ003-042000-
Northern Panhandle of West Virginia

CITY           SKY/WX    TMP DP  RH WIND       PRES   REMARKS
WHEELING       CLOUDY    59  40  49 S7        29.63F
$$

WVZ009-042000-
Northwest West Virginia

CITY           SKY/WX    TMP DP  RH WIND       PRES   REMARKS
PARKERSBURG    PTSUNNY   64  41  42 S9        29.65F
$$

WVZ006-042000-
Western West Virginia

CITY           SKY/WX    TMP DP  RH WIND       PRES   REMARKS
HUNTINGTON     CLOUDY    62  46  55 S6        29.65F
$$

WVZ015-042000-
West Central West Virginia

CITY           SKY/WX    TMP DP  RH WIND       PRES   REMARKS
CHARLESTON     PTSUNNY   62  42  47 SW8       29.66F
$$

WVZ022-031-042000-
North Central West Virginia

CITY           SKY/WX    TMP DP  RH WIND       PRES   REMARKS
CLARKSBURG     CLOUDY    51  48  89 SE7       29.67F
MORGANTOWN     LGT RAIN  52  42  69 VRB6G20   29.69R
$$

WVZ025-035-042-045-042000-
Southern West Virginia

CITY           SKY/WX    TMP DP  RH WIND       PRES   REMARKS
BECKLEY        CLOUDY    54  42  64 SW9G16    29.69F
LOGAN          NOT AVBL
BLUEFIELD      CLOUDY    53  40  61 NW10G20   29.71F
LEWISBURG      CLOUDY    58  40  52 SW8       29.68F
$$

WVZ047-042000-
Northern Mountains of West Virginia

CITY           SKY/WX    TMP DP  RH WIND       PRES   REMARKS
ELKINS         CLOUDY    54  44  69 W16       29.68F
$$

WVZ052-042000-
Eastern Panhandle of West Virginia

CITY           SKY/WX    TMP DP  RH WIND       PRES   REMARKS
MARTINSBURG      N/A     62  52  69 E9        29.64F
PETERSBURG     CLOUDY    59  52  77 SE3       29.66F
$$




USA.gov is the U.S. government's official web portal to all federal, state and local government web resources and services.